SCP
1 1 1 1 1 1 0 0 0 0 0 0 0 0 0 0 0 0 0 0 0 0 0 0 0 0 0 0 0 0 0 0 0 0 0 0 0 0 0 0 0 0 0
1 1 1 1 1 1 0 0 0 0 0 0 0 0 0 0 0 0 0 0 0 0 0 0 0 0 0 0 0 0 0 0 0 0 0 0 0 0 0 0 0 0 0
2 1 1 1 1 1 1 1 0 0 0 0 0 0 0 0 0 0 0 0 0 0 0 0 0 0 0 0 0 0 0 0 0 0 0 0 0 0 0 0 0 0 0
2 1 1 1 1 1 1 1 1 0 0 0 0 0 0 0 0 0 0 0 0 0 0 0 0 0 0 0 0 0 0 0 -0 -0 0 0 0 0 0 0 0 0 0
2 1 1 1 1 1 1 1 1 1 1 0 0 0 0 1 0 0 0 0 0 0 0 0 0 0 0 0 0 0 0 -0 -0 -0 0 0 0 0 0 0 0 0 0
1 1 1 1 1 1 1 1 1 1 1 1 1 1 1 1 1 1 0 0 0 0 0 0 0 0 0 0 0 0 -0 -0 -0 0 0 0 0 0 0 0 0 0 0
1 1 1 1 1 1 1 1 1 1 1 1 1 1 1 1 1 1 1 0 0 0 0 0 0 0 0 0 0 0 -0 0 0 0 0 0 0 0 0 0 0 0 0
1 1 1 1 1 1 1 1 1 1 1 1 1 1 1 1 1 1 1 1 0 0 0 0 0 0 0 0 0 0 -0 0 0 0 0 0 0 0 0 0 0 0 0
1 1 1 1 1 1 1 1 1 1 1 1 1 1 1 1 1 1 1 1 0 0 0 0 0 0 0 0 0 0 -0 0 0 0 0 0 0 0 0 0 0 0 0
1 1 1 1 1 1 1 1 1 1 1 1 1 1 1 1 1 1 1 1 1 0 0 0 0 0 0 0 0 0 -0 0 0 0 0 0 0 0 0 0 0 0 0
1 1 1 1 1 1 1 1 1 1 1 1 1 1 1 1 1 1 1 1 1 0 0 0 0 0 0 0 0 0 0 0 0 0 0 0 0 0 0 0 0 0 0
1 1 1 1 1 1 1 1 1 1 1 1 1 1 1 1 1 1 1 1 1 0 0 0 0 0 0 0 0 0 0 0 0 0 0 1 1 0 0 0 0 0 0
2 1 1 1 1 1 1 1 1 1 1 1 1 1 1 1 1 1 1 1 1 0 0 0 0 0 0 0 0 0 0 0 0 0 0 1 1 1 0 0 0 0 0
2 2 1 1 1 1 2 2 1 1 1 1 1 1 1 1 1 1 1 1 1 0 0 0 0 0 0 0 0 0 0 0 0 0 0 1 1 1 0 0 0 0 0
2 2 2 2 2 2 2 2 2 1 1 1 1 1 1 1 1 1 1 1 1 0 0 0 0 0 0 0 0 0 0 0 0 0 0 1 1 1 1 1 0 0 0
3 2 2 2 2 2 2 2 2 2 2 2 1 1 1 1 1 1 1 1 1 1 1 1 1 1 1 1 0 1 1 1 1 0 0 0 0 1 1 1 1 1 1
3 3 2 2 2 3 3 2 2 2 2 2 1 1 1 1 1 1 1 1 1 1 1 1 1 1 1 1 1 1 1 1 1 1 1 0 0 0 0 0 1 1 1
3 3 2 2 3 3 3 2 2 2 2 1 1 1 1 1 1 1 1 1 1 1 1 1 1 1 1 1 1 1 1 1 1 1 1 0 0 0 0 0 0 0 0
3 3 3 3 3 3 3 2 2 1 1 1 1 1 1 1 1 1 1 1 1 1 1 1 1 1 1 1 1 1 0 0 0 0 0 0 0 0 0 0 0 0 0
3 3 3 3 3 3 2 2 1 1 1 1 1 1 1 1 1 1 1 1 1 1 1 1 1 1 1 1 0 0 0 0 0 0 0 0 0 0 0 0 0 0 0
3 3 3 3 3 3 2 2 1 1 1 1 1 1 1 1 1 1 1 1 1 1 1 1 1 1 0 0 0 0 0 0 0 0 0 0 0 0 0 0 0 0 0
2 2 2 2 2 2 2 1 1 1 1 1 1 1 1 1 0 0 1 1 1 1 1 1 1 0 0 0 0 0 0 0 0 0 0 0 0 0 0 0 0 0 0
2 2 2 2 2 2 2 1 1 1 1 1 1 0 0 0 0 0 0 0 0 0 0 0 0 0 0 0 0 0 0 0 0 0 0 0 0 0 0 0 0 0 0
1 1 1 1 1 1 1 1 1 1 1 1 0 0 0 0 0 0 0 0 0 0 0 0 0 0 0 0 0 0 0 0 0 0 0 0 0 0 0 0 0 0 0
1 1 1 1 1 1 1 1 1 1 1 0 0 0 0 0 0 0 0 0 0 0 0 0 0 0 0 0 0 0 0 0 0 0 0 0 0 0 0 0 0 0 0
1 1 1 1 1 1 1 1 1 1 0 0 0 0 0 0 0 0 0 0 0 0 0 0 0 0 0 0 0 0 0 0 0 0 0 0 0 0 0 0 0 0 0
Wind_Speed
17 18 18 17 17 16 15 15 15 14 14 13 12 12 12 11 12 12 12 12 11 11 11 10 10 10 9 10 10 11 11 12 13 14 15 14 13 12 10 8 8 12 13
20 19 18 17 17 17 16 15 15 14 14 13 13 12 12 11 11 11 11 11 11 11 11 11 10 10 10 10 10 10 10 10 10 12 13 13 12 10 9 9 9 10 12
20 18 17 16 17 17 16 16 15 15 15 14 13 13 12 11 11 11 11 10 10 10 11 11 10 10 10 9 9 8 8 8 8 9 10 9 9 10 10 12 14 12 11
19 16 16 17 16 17 16 16 16 16 16 15 14 13 13 12 11 10 11 10 10 10 10 10 10 10 9 9 8 7 6 6 6 6 4 5 8 10 10 10 11 10 9
17 15 16 17 16 17 17 16 16 16 16 15 14 14 13 12 11 10 10 10 10 9 9 10 10 10 9 8 7 6 4 4 5 7 3 5 8 10 10 9 8 8 8
17 16 17 17 16 16 17 17 17 16 16 15 15 14 13 12 11 10 10 10 10 9 9 10 10 9 8 7 6 4 3 3 6 6 3 7 8 10 10 8 7 7 6
16 16 17 16 16 16 16 17 16 16 15 14 14 13 12 11 11 10 10 10 10 9 9 9 9 8 7 6 5 3 2 4 7 3 2 7 10 12 10 8 7 6 5
16 16 15 16 17 16 16 15 15 15 14 14 13 12 12 11 10 10 10 10 9 9 9 9 8 8 7 6 4 2 3 7 5 2 5 9 12 12 10 8 6 6 5
15 16 15 14 14 15 14 15 14 14 14 13 13 12 12 11 11 11 10 9 9 9 9 9 8 8 7 5 4 3 5 7 8 3 5 8 13 12 10 8 6 6 5
14 15 14 14 13 13 12 14 15 15 14 14 13 13 13 12 11 11 10 9 10 9 9 9 8 7 6 5 5 5 6 7 7 3 4 8 13 12 10 8 7 7 6
12 13 13 14 13 13 13 13 14 14 13 13 12 13 12 9 10 9 11 12 11 10 10 9 9 8 7 7 7 7 6 5 5 1 4 11 13 12 10 8 7 7 7
11 12 12 13 13 12 10 10 9 9 10 9 8 10 8 6 7 9 11 13 12 11 10 10 10 9 8 6 9 9 5 7 4 2 6 13 11 10 9 7 7 7 7
11 11 12 11 10 11 8 8 6 5 7 8 8 9 7 5 5 5 6 7 8 9 8 8 9 7 8 6 5 6 7 5 1 3 7 11 10 9 7 6 5 6 6
10 11 9 10 9 8 8 7 5 5 5 6 7 9 7 4 4 5 5 6 6 5 6 6 6 8 7 7 6 6 4 1 2 4 6 10 8 7 6 5 4 4 5
4 6 7 6 7 5 6 6 6 6 6 5 5 6 5 4 4 4 4 5 6 5 5 5 5 6 5 3 2 1 1 2 4 5 5 8 8 6 5 4 2 2 3
5 2 0 4 4 4 5 4 3 3 4 4 3 3 3 3 2 2 3 3 2 3 3 2 2 2 1 1 1 2 3 4 4 5 5 6 7 6 6 5 4 3 2
5 3 1 3 4 4 4 3 2 2 3 3 2 2 1 1 1 1 1 1 1 0 2 2 1 1 1 1 2 2 3 4 4 4 4 4 5 7 9 8 8 7 6
5 3 1 2 4 4 4 3 2 2 3 2 2 2 1 0 1 1 1 1 1 1 1 1 1 1 1 1 2 2 3 3 4 4 4 5 4 5 7 10 10 11 11
6 4 3 5 5 5 5 4 3 2 3 3 2 2 2 1 1 2 1 1 1 0 0 1 1 1 1 2 1 2 2 3 3 4 5 6 6 6 6 9 12 13 14
7 6 6 6 6 5 5 4 3 3 3 3 3 3 3 2 2 1 2 2 2 1 1 1 2 2 2 1 1 3 3 3 4 4 5 6 6 7 7 7 6 10 16
9 8 7 6 5 4 3 3 3 3 3 3 4 5 5 4 3 2 1 1 2 2 2 2 2 3 2 2 2 2 3 5 5 5 5 6 6 7 7 7 5 5 6
9 8 7 6 5 4 2 2 3 4 4 4 5 6 6 5 4 2 2 2 2 2 3 2 1 2 2 1 1 2 3 2 4 5 5 5 6 5 7 8 6 6 5
9 8 7 6 6 5 3 3 4 4 4 4 5 5 7 7 6 5 5 4 3 3 4 4 3 3 2 2 3 1 1 2 4 3 4 5 5 4 5 5 6 6 6
9 8 8 8 8 6 4 5 6 5 5 5 5 7 8 10 9 8 7 7 6 6 5 5 5 4 3 3 2 3 3 2 3 3 2 3 4 5 5 5 5 5 5
9 9 9 10 10 9 7 7 7 7 7 6 7 10 9 9 10 10 9 8 8 7 8 8 7 7 5 4 3 2 2 3 3 3 3 3 2 3 3 3 3 3 3
10 9 9 10 10 10 10 10 10 10 10 10 9 9 7 7 8 10 10 9 8 8 9 9 8 10 7 7 6 5 4 3 2 2 2 3 3 3 3 2 2 2 2
Wind_Direction
128 134 137 138 140 142 142 142 139 136 133 129 124 118 113 108 104 102 100 101 103 107 109 109 107 102 95 89 87 88 91 94 94 94 93 92 92 91 88 90 113 94 97
130 135 138 139 143 145 146 145 143 140 138 134 131 127 123 118 113 110 108 106 107 109 110 111 111 108 105 102 100 100 103 106 107 111 112 106 101 94 79 62 87 104 104
128 136 139 141 145 147 148 147 146 144 142 139 137 135 131 126 122 118 115 114 114 115 116 116 116 115 114 113 113 115 119 125 131 139 145 125 113 101 89 86 95 106 106
131 142 144 143 146 149 149 149 148 148 147 144 143 141 138 134 130 127 124 122 121 121 121 121 121 121 122 121 122 127 137 147 159 178 198 134 125 113 106 102 104 107 109
136 144 138 147 148 150 150 150 151 152 150 149 148 147 144 141 138 135 134 131 129 128 128 127 125 125 126 125 128 137 156 180 203 223 220 113 107 126 121 117 115 115 115
142 144 142 149 149 151 152 153 154 154 153 152 152 150 148 147 144 143 142 140 138 135 133 132 131 130 129 130 134 149 192 236 258 234 187 128 122 135 133 132 131 129 127
148 143 146 149 148 152 155 155 155 155 154 154 153 152 151 150 150 150 149 147 145 143 140 136 134 134 135 136 144 171 248 277 265 269 138 123 128 142 142 145 146 144 145
149 142 144 149 151 154 156 155 155 154 154 153 153 152 152 152 154 154 152 152 150 148 146 142 141 142 143 147 158 203 270 290 283 279 131 116 138 147 149 153 154 159 163
149 142 148 154 155 155 155 154 154 153 153 154 154 154 155 157 159 160 158 157 155 156 154 152 153 154 156 163 183 232 274 294 296 285 130 124 145 149 153 160 169 177 184
148 145 153 158 159 161 160 158 156 155 156 156 157 160 161 163 166 166 164 164 164 165 165 164 166 169 174 186 205 236 269 293 276 279 108 135 149 152 159 170 184 193 199
148 147 158 162 164 168 164 160 158 159 159 159 164 167 166 174 175 177 179 168 173 175 175 176 179 184 189 204 219 232 254 259 260 134 116 145 153 155 163 178 192 201 208
151 151 162 166 166 172 167 154 165 169 164 175 170 172 184 188 185 184 167 169 177 182 186 190 192 196 210 211 214 222 240 242 255 152 135 149 152 155 163 180 198 208 215
158 162 168 166 165 172 159 155 169 172 162 187 177 179 197 198 187 162 160 167 180 187 195 192 199 212 213 221 200 199 225 236 164 103 128 141 144 151 160 177 197 210 218
162 168 168 160 164 172 153 156 166 171 165 189 178 186 197 205 190 170 172 172 183 196 201 189 205 212 217 222 205 203 211 200 112 107 127 132 135 142 154 169 190 209 223
121 158 159 153 157 160 138 158 176 180 172 188 175 191 200 199 205 182 179 177 190 192 198 202 207 207 210 209 198 196 28 45 84 97 116 125 126 129 133 145 169 207 218
93 66 51 135 148 149 144 160 169 172 154 166 153 176 215 221 221 198 179 183 198 175 170 211 211 168 153 93 63 47 40 43 57 85 110 123 117 109 101 91 79 69 71
77 78 307 169 149 150 143 149 134 117 132 134 136 140 166 246 240 249 164 98 294 158 144 147 167 101 113 113 75 58 60 45 43 57 77 95 102 93 84 78 70 63 62
70 87 274 204 135 125 112 115 99 110 108 109 115 114 107 309 200 163 139 155 237 359 91 121 110 83 77 78 74 65 76 70 56 51 55 67 84 85 83 80 73 68 65
50 50 34 52 77 98 101 102 92 76 88 89 93 102 94 56 138 143 163 195 153 105 65 165 118 128 111 93 95 78 73 72 68 65 67 65 73 80 80 81 75 71 64
48 51 46 55 78 104 114 113 93 72 74 82 74 66 73 61 67 122 161 154 143 161 158 93 118 124 113 108 99 75 57 67 68 62 69 71 68 74 73 71 70 71 70
42 45 45 48 58 83 115 125 119 117 90 79 71 62 56 57 63 80 83 117 134 137 131 136 143 132 111 107 113 99 71 61 61 53 56 66 66 67 71 67 62 60 74
41 40 45 40 43 68 88 116 115 107 91 83 76 65 58 59 62 77 62 70 87 104 96 87 105 133 123 96 148 153 141 114 66 57 59 66 65 64 67 70 64 58 64
44 37 36 40 41 55 78 105 108 99 89 77 74 64 49 52 54 57 61 61 64 77 80 70 55 83 114 89 43 47 129 142 121 73 59 65 66 67 69 75 71 64 71
43 43 41 46 48 53 71 95 104 101 95 77 75 71 59 52 51 49 57 62 65 67 68 65 56 57 75 94 79 58 60 71 120 124 94 76 79 74 68 66 71 69 72
49 47 47 50 52 52 61 77 87 88 89 86 81 74 65 56 53 52 54 60 64 65 64 60 56 53 55 59 63 70 69 61 56 109 129 137 117 99 100 90 87 82 87
52 52 55 58 57 57 63 71 81 91 92 90 84 81 72 65 58 56 59 60 61 64 66 64 61 59 57 56 52 49 53 56 49 61 105 138 132 127 112 99 99 80 79